Location: Kalispell
(48.1967°N, 114.3128°W)
Time: 01:57:11
(UTC-06:00)

Amateur Radio Satellites - All Passes

Search period start: 20 September 2014 01:27
Search period end: 21 September 2014 01:27
Location: Kalispell, 48.1967°N, 114.3128°W

Satellite Date Start Highest point End Downlink Frequencies (MHz)
Time Altitude Azimuth
Oscar 16 20 Sep 01:48:04 01:50:09 12° 86° (E) 01:52:13 437.025 USB, Beacon 2401.1428
Saudisat 1A 20 Sep 02:08:42 02:13:07 66° 49° (NE) 02:17:30 436.775 MHz
KITSAT 1 20 Sep 02:21:05 02:27:37 26° 19° (NNE) 02:34:08 435.175 FM
ITAMSAT 1 20 Sep 02:31:57 02:34:23 13° 87° (E) 02:36:48 435.822 SSB
Uribyol 2 20 Sep 02:35:35 02:38:37 15° 88° (E) 02:41:37 436.500 FM
UOSAT-12 20 Sep 02:36:04 02:40:26 38° 319° (NW) 02:44:53 437.025 FM, 437.400 FM
SO-50 20 Sep 02:44:37 02:46:42 13° 345° (NNW) 02:48:48 436.795 FM
Oscar 19 20 Sep 02:46:22 02:51:13 38° 97° (E) 02:56:00 437.125 CW, 437.150 USB
ISS 20 Sep 02:48:46 02:49:52 11° 134° (SE) 02:50:58 145.800 FM
AO-27 20 Sep 03:05:38 03:10:00 26° 94° (E) 03:14:21 436.795 MHz FM
OPAL 20 Sep 03:22:21 03:24:26 12° 49° (NE) 03:26:32 ?
Oscar 16 20 Sep 03:25:05 03:30:19 84° 105° (ESE) 03:35:29 437.025 USB, Beacon 2401.1428
RS-15 20 Sep 03:27:42 03:34:26 19° 98° (E) 03:41:07 29.354 - 29.394 USB, Beacon 29.352 USB
JAS-1B 20 Sep 03:33:22 03:39:01 49° 99° (E) 03:44:30 435.800 - 435.900 CW/SSB
AO-Echo 20 Sep 03:34:38 03:39:22 53° 100° (E) 03:44:13 ?
Saudisat 1A 20 Sep 03:49:12 03:52:15 18° 247° (WSW) 03:55:17 436.775 MHz
Gurwin Techsat 1B 20 Sep 04:00:22 04:05:21 39° 97° (E) 04:10:18 435.225 FM
ITAMSAT 1 20 Sep 04:09:23 04:14:38 88° 105° (ESE) 04:19:52 435.822 SSB
Uribyol 2 20 Sep 04:13:29 04:18:45 82° 287° (WNW) 04:23:58 436.500 FM
KITSAT 1 20 Sep 04:16:54 04:24:54 58° 45° (NE) 04:32:49 435.175 FM
UOSAT-12 20 Sep 04:19:25 04:21:54 14° 342° (NNW) 04:24:24 437.025 FM, 437.400 FM
ISS 20 Sep 04:22:43 04:26:00 58° 151° (SSE) 04:29:17 145.800 FM
AO-7 20 Sep 04:25:27 04:30:34 17° 86° (E) 04:35:39 29.400 - 29.500 MHz
Oscar 19 20 Sep 04:25:53 04:30:30 33° 296° (WNW) 04:35:04 437.125 CW, 437.150 USB
SO-50 20 Sep 04:27:36 04:29:21 12° 11° (N) 04:31:06 436.795 FM
TMSAT-1 20 Sep 04:36:58 04:42:14 60° 101° (E) 04:47:28 436.925 FM
AO-27 20 Sep 04:44:45 04:49:45 48° 292° (WNW) 04:54:45 436.795 MHz FM
Uosat F 20 Sep 04:46:40 04:49:19 14° 88° (E) 04:51:58 435.120 FM
OPAL 20 Sep 04:57:13 05:02:21 63° 68° (ENE) 05:07:32 ?
Oscar 16 20 Sep 05:05:43 05:09:01 17° 304° (NW) 05:12:18 437.025 USB, Beacon 2401.1428
AO-Echo 20 Sep 05:14:06 05:17:52 23° 298° (WNW) 05:21:41 ?
JAS-1B 20 Sep 05:24:35 05:29:29 28° 301° (WNW) 05:34:13 435.800 - 435.900 CW/SSB
RS-15 20 Sep 05:33:46 05:44:40 72° 121° (ESE) 05:55:31 29.354 - 29.394 USB, Beacon 29.352 USB
Gurwin Techsat 1B 20 Sep 05:40:30 05:45:15 34° 296° (WNW) 05:49:59 435.225 FM
STRAND 1 20 Sep 05:42:22 05:44:41 13° 53° (NE) 05:47:00 ?
ITAMSAT 1 20 Sep 05:50:14 05:53:27 17° 304° (NW) 05:56:41 435.822 SSB
Uribyol 2 20 Sep 05:54:35 05:57:27 15° 306° (NW) 06:00:18 436.500 FM
ISS 20 Sep 05:59:32 06:02:48 49° 351° (N) 06:06:03 145.800 FM
UOSAT-12 20 Sep 06:02:37 06:04:07 11° 7° (N) 06:05:37 437.025 FM, 437.400 FM
SO-50 20 Sep 06:07:30 06:11:32 26° 34° (NE) 06:15:36 436.795 FM
KITSAT 1 20 Sep 06:12:39 06:20:07 43° 248° (WSW) 06:27:33 435.175 FM
AO-7 20 Sep 06:16:26 06:24:46 76° 107° (ESE) 06:33:03 29.400 - 29.500 MHz
TMSAT-1 20 Sep 06:17:38 06:21:46 24° 300° (WNW) 06:25:53 436.925 FM
Uosat F 20 Sep 06:23:43 06:28:46 84° 286° (WNW) 06:33:48 435.120 FM
OPAL 20 Sep 06:37:49 06:41:39 21° 267° (W) 06:45:32 ?
Hamsat 20 Sep 07:08:43 07:12:44 38° 97° (E) 07:16:40 145.90 MHz
JAS-2 20 Sep 07:13:28 07:19:16 52° 100° (E) 07:25:48 435.800 - 435.900 CW/SSB, 435.910 FM
STRAND 1 20 Sep 07:17:57 07:23:01 74° 72° (ENE) 07:28:08 ?
ISS 20 Sep 07:36:35 07:39:51 51° 11° (N) 07:43:07 145.800 FM
UOSAT-12 20 Sep 07:42:15 07:46:00 23° 31° (NNE) 07:49:44 437.025 FM, 437.400 FM
RS-15 20 Sep 07:47:17 07:57:46 48° 328° (NNW) 08:08:20 29.354 - 29.394 USB, Beacon 29.352 USB
SO-50 20 Sep 07:47:46 07:52:33 71° 235° (SW) 07:57:23 436.795 FM
Uosat F 20 Sep 08:04:09 08:06:49 15° 306° (NW) 08:09:28 435.120 FM
MaSat-1 20 Sep 08:04:28 08:07:06 14° 102° (ESE) 08:09:43 437.345 MHz
AO-7 20 Sep 08:09:55 08:16:55 32° 309° (NW) 08:23:55 29.400 - 29.500 MHz
SO-67 20 Sep 08:13:38 08:16:37 26° 95° (E) 08:19:34 435.3500 MHz FM
Hamsat 20 Sep 08:45:04 08:48:31 24° 295° (WNW) 08:51:55 145.90 MHz
JAS-2 20 Sep 08:59:05 09:04:12 32° 297° (WNW) 09:09:51 435.800 - 435.900 CW/SSB, 435.910 FM
STRAND 1 20 Sep 08:59:38 09:02:48 16° 271° (W) 09:05:59 ?
ISS 20 Sep 09:13:21 09:16:37 52° 210° (SSW) 09:19:51 145.800 FM
UOSAT-12 20 Sep 09:22:01 09:26:47 88° 232° (SW) 09:31:28 437.025 FM, 437.400 FM
SO-50 20 Sep 09:31:02 09:32:18 11° 253° (WSW) 09:33:33 436.795 FM
MaSat-1 20 Sep 09:38:11 09:43:13 89° 120° (ESE) 09:48:06 437.345 MHz
SO-67 20 Sep 09:46:47 09:49:33 23° 293° (WNW) 09:52:19 435.3500 MHz FM
RS-15 20 Sep 10:03:47 10:13:25 33° 2° (N) 10:23:13 29.354 - 29.394 USB, Beacon 29.352 USB
AO-7 20 Sep 10:05:47 10:07:07 10° 334° (NNW) 10:08:27 29.400 - 29.500 MHz
HO-68 20 Sep 10:09:45 10:16:27 40° 97° (E) 10:23:07 435.675 MHz FM
Oscar 11 20 Sep 10:20:57 10:23:38 16° 90° (E) 10:26:18 145.825 FM, Beacon 2401.500 USB
UKube-1 20 Sep 10:37:38 10:41:27 29° 96° (E) 10:45:14 145.840 MHz, 145.915 MHz
UOSAT-12 20 Sep 11:03:52 11:06:13 14° 251° (WSW) 11:08:33 437.025 FM, 437.400 FM
MaSat-1 20 Sep 11:16:59 11:20:35 20° 318° (NW) 11:24:03 437.345 MHz
FUNcube-1 20 Sep 11:47:45 11:52:17 51° 99° (E) 11:56:45 145.950 - 145.970 MHz USB
Oscar 11 20 Sep 11:55:55 12:00:14 60° 288° (WNW) 12:04:29 145.825 FM, Beacon 2401.500 USB
HO-68 20 Sep 11:57:28 12:04:17 49° 297° (WNW) 12:11:06 435.675 MHz FM
UKube-1 20 Sep 12:13:45 12:17:40 33° 294° (WNW) 12:21:34 145.840 MHz, 145.915 MHz
RS-15 20 Sep 12:18:16 12:28:56 51° 34° (NE) 12:39:56 29.354 - 29.394 USB, Beacon 29.352 USB
Oscar 19 20 Sep 12:30:41 12:33:22 14° 54° (NE) 12:36:03 437.125 CW, 437.150 USB
Sapphire 20 Sep 12:33:21 12:38:01 31° 111° (ESE) 12:42:44 437.095 MHz 1200 baud AX-25 AFSK
JAS-1B 20 Sep 12:34:35 12:38:59 17° 51° (NE) 12:43:01 435.800 - 435.900 CW/SSB
AO-27 20 Sep 12:52:52 12:53:48 11° 50° (NE) 12:54:45 436.795 MHz FM
PCSat 20 Sep 12:59:34 13:04:47 52° 117° (ESE) 13:10:04 145.825 MHz
Oscar 16 20 Sep 13:07:33 13:11:53 28° 62° (ENE) 13:16:15 437.025 USB, Beacon 2401.1428
AO-Echo 20 Sep 13:15:22 13:18:00 15° 57° (ENE) 13:20:38 ?
FUNcube-1 20 Sep 13:24:48 13:28:21 22° 298° (WNW) 13:31:52 145.950 - 145.970 MHz USB
AO-7 20 Sep 13:42:01 13:44:48 12° 30° (NNE) 13:47:35 29.400 - 29.500 MHz
HO-68 20 Sep 13:47:20 13:50:22 13° 319° (NW) 13:53:24 435.675 MHz FM
Gurwin Techsat 1B 20 Sep 13:48:06 13:51:10 16° 55° (NE) 13:54:13 435.225 FM
ITAMSAT 1 20 Sep 13:52:43 13:57:09 30° 63° (ENE) 14:01:37 435.822 SSB
Uribyol 2 20 Sep 13:56:28 14:01:04 34° 64° (ENE) 14:05:42 436.500 FM
Oscar 19 20 Sep 14:06:42 14:11:53 79° 73° (ENE) 14:17:07 437.125 CW, 437.150 USB
Sapphire 20 Sep 14:15:58 14:21:14 51° 311° (NW) 14:26:33 437.095 MHz 1200 baud AX-25 AFSK
JAS-1B 20 Sep 14:20:26 14:28:39 67° 70° (ENE) 14:35:30 435.800 - 435.900 CW/SSB
TMSAT-1 20 Sep 14:23:21 14:27:20 22° 59° (ENE) 14:31:20 436.925 FM
AO-27 20 Sep 14:27:12 14:32:15 57° 70° (ENE) 14:37:20 436.795 MHz FM
RS-15 20 Sep 14:30:58 14:41:53 67° 241° (WSW) 14:53:13 29.354 - 29.394 USB, Beacon 29.352 USB
PCSat 20 Sep 14:43:33 14:48:27 34° 318° (NW) 14:53:23 145.825 MHz
Oscar 16 20 Sep 14:46:00 14:51:01 48° 261° (W) 14:56:04 437.025 USB, Beacon 2401.1428
AO-Echo 20 Sep 14:51:26 14:56:11 83° 256° (WSW) 15:00:54 ?
Gurwin Techsat 1B 20 Sep 15:25:03 15:30:22 85° 74° (ENE) 15:35:43 435.225 FM
AO-7 20 Sep 15:27:53 15:35:15 37° 54° (NE) 15:42:37 29.400 - 29.500 MHz
ITAMSAT 1 20 Sep 15:31:35 15:36:29 44° 261° (W) 15:41:27 435.822 SSB
Uribyol 2 20 Sep 15:35:41 15:40:29 38° 263° (W) 15:45:20 436.500 FM
Oscar 19 20 Sep 15:48:44 15:51:52 16° 272° (W) 15:55:00 437.125 CW, 437.150 USB
TMSAT-1 20 Sep 16:01:34 16:06:49 65° 258° (WSW) 16:12:06 436.925 FM
Sapphire 20 Sep 16:02:39 16:05:58 16° 334° (NNW) 16:09:18 437.095 MHz 1200 baud AX-25 AFSK
Uosat F 20 Sep 16:02:50 16:07:08 30° 63° (ENE) 16:11:27 435.120 FM
AO-27 20 Sep 16:08:09 16:12:08 22° 268° (W) 16:16:09 436.795 MHz FM
JAS-1B 20 Sep 16:12:33 16:19:35 30° 266° (W) 16:25:44 435.800 - 435.900 CW/SSB
PCSat 20 Sep 16:31:12 16:33:36 13° 342° (NNW) 16:36:00 145.825 MHz
AO-Echo 20 Sep 16:35:02 16:35:44 10° 274° (W) 16:36:27 ?
RS-15 20 Sep 16:45:41 16:52:02 17° 263° (W) 16:58:32 29.354 - 29.394 USB, Beacon 29.352 USB
OPAL 20 Sep 17:06:03 17:07:45 12° 88° (E) 17:09:26 ?
Gurwin Techsat 1B 20 Sep 17:08:05 17:11:03 15° 273° (W) 17:14:01 435.225 FM
AO-7 20 Sep 17:19:25 17:27:39 64° 255° (WSW) 17:35:55 29.400 - 29.500 MHz
JAS-2 20 Sep 17:31:12 17:35:38 30° 63° (ENE) 17:40:07 435.800 - 435.900 CW/SSB, 435.910 FM
Uosat F 20 Sep 17:41:05 17:45:47 41° 262° (W) 17:50:32 435.120 FM
Sapphire 20 Sep 17:51:28 17:51:52 10° 1° (N) 17:52:16 437.095 MHz 1200 baud AX-25 AFSK
MaSat-1 20 Sep 17:51:33 17:55:30 48° 54° (NE) 17:58:52 437.345 MHz
Saudisat 1A 20 Sep 17:57:37 18:01:51 47° 122° (ESE) 18:06:06 436.775 MHz
Hamsat 20 Sep 18:05:15 18:09:24 44° 70° (ENE) 18:13:33 145.90 MHz
PCSat 20 Sep 18:18:19 18:19:38 11° 9° (N) 18:20:56 145.825 MHz
OPAL 20 Sep 18:42:16 18:47:30 79° 106° (ESE) 18:52:36 ?
SO-67 20 Sep 18:50:41 18:53:00 17° 65° (ENE) 18:55:20 435.3500 MHz FM
KITSAT 1 20 Sep 18:51:53 18:57:24 21° 102° (ESE) 19:02:55 435.175 FM
HO-68 20 Sep 19:00:18 19:02:46 12° 39° (NE) 19:05:15 435.675 MHz FM
JAS-2 20 Sep 19:15:46 19:20:40 41° 262° (W) 19:25:36 435.800 - 435.900 CW/SSB, 435.910 FM
AO-7 20 Sep 19:18:21 19:22:08 14° 277° (W) 19:25:56 29.400 - 29.500 MHz
STRAND 1 20 Sep 19:25:46 19:29:24 19° 90° (E) 19:33:01 ?
MaSat-1 20 Sep 19:29:24 19:31:39 15° 258° (WSW) 19:33:44 437.345 MHz
Sapphire 20 Sep 19:34:10 19:37:43 17° 27° (NNE) 19:41:15 437.095 MHz 1200 baud AX-25 AFSK
Saudisat 1A 20 Sep 19:37:41 19:41:36 30° 322° (NW) 19:45:33 436.775 MHz
Hamsat 20 Sep 19:42:13 19:45:33 21° 268° (W) 19:48:55 145.90 MHz
PCSat 20 Sep 20:00:52 20:05:11 23° 35° (NE) 20:09:28 145.825 MHz
OPAL 20 Sep 20:22:14 20:25:47 19° 306° (NW) 20:29:18 ?
SO-67 20 Sep 20:22:35 20:25:48 36° 263° (W) 20:29:02 435.3500 MHz FM
HO-68 20 Sep 20:42:04 20:48:45 45° 61° (ENE) 20:55:27 435.675 MHz FM
KITSAT 1 20 Sep 20:43:32 20:51:37 83° 123° (ESE) 20:59:45 435.175 FM
STRAND 1 20 Sep 21:03:58 21:09:04 65° 289° (WNW) 21:14:09 ?
Sapphire 20 Sep 21:16:57 21:22:20 57° 50° (NE) 21:27:41 437.095 MHz 1200 baud AX-25 AFSK
Oscar 11 20 Sep 21:19:25 21:22:41 21° 62° (ENE) 21:25:58 145.825 FM, Beacon 2401.500 USB
Saudisat 1A 20 Sep 21:21:02 21:22:34 12° 345° (NNW) 21:24:06 436.775 MHz
UKube-1 20 Sep 21:36:28 21:40:31 40° 68° (ENE) 21:44:36 145.840 MHz, 145.915 MHz
PCSat 20 Sep 21:43:52 21:49:20 90° 237° (WSW) 21:54:46 145.825 MHz
SO-50 20 Sep 22:08:02 22:10:41 16° 110° (ESE) 22:13:23 436.795 FM
HO-68 20 Sep 22:29:44 22:36:28 44° 262° (W) 22:43:17 435.675 MHz FM
KITSAT 1 20 Sep 22:40:35 22:47:54 36° 327° (NNW) 22:55:15 435.175 FM
STRAND 1 20 Sep 22:45:30 22:47:18 12° 308° (NW) 22:49:06 ?
FUNcube-1 20 Sep 22:47:25 22:51:48 63° 73° (ENE) 22:56:19 145.950 - 145.970 MHz USB
Oscar 11 20 Sep 22:54:20 22:58:34 49° 261° (W) 23:02:50 145.825 FM, Beacon 2401.500 USB
Sapphire 20 Sep 23:00:56 23:05:26 27° 250° (WSW) 23:09:55 437.095 MHz 1200 baud AX-25 AFSK
Saudisat 1A 20 Sep 23:03:34 23:04:11 10° 10° (N) 23:04:47 436.775 MHz
UKube-1 20 Sep 23:13:24 23:16:52 23° 266° (W) 23:20:23 145.840 MHz, 145.915 MHz
PCSat 20 Sep 23:28:52 23:31:59 16° 256° (WSW) 23:35:06 145.825 MHz
UOSAT-12 20 Sep 23:39:47 23:41:20 12° 107° (ESE) 23:42:53 437.025 FM, 437.400 FM
SO-50 20 Sep 23:46:06 23:50:37 79° 309° (NW) 23:55:17 436.795 FM
FUNcube-1 21 Sep 00:25:52 00:28:39 16° 271° (W) 00:31:29 145.950 - 145.970 MHz USB
KITSAT 1 21 Sep 00:39:59 00:46:00 22° 356° (N) 00:52:00 435.175 FM
Saudisat 1A 21 Sep 00:41:47 00:45:22 23° 34° (NNE) 00:48:55 436.775 MHz
UOSAT-12 21 Sep 01:16:01 01:20:39 77° 126° (SE) 01:25:24 437.025 FM, 437.400 FM
